Valley City, ND

9:45 AM CST on December 06, 2019 (GMT -0600)
Valley City

Weather History for KBAC - October, 2019

Change the Weather History Date:

Saturday, October 12, 2019

  Actual Average (WUND) Record (WUND)
Temperature  
Mean Temperature 31 °F -  
Max Temperature 32 °F - - (-1)
Min Temperature 30 °F - - (-1)
Degree Days  
Heating Degree Days 34    
Moisture  
Dew Point 31 °F    
Average Humidity 99    
Maximum Humidity 100    
Minimum Humidity 93    
Precipitation  
Precipitation 0.00 in - - ()
Sea Level Pressure  
Sea Level Pressure 29.54 in    
Wind  
Wind Speed 29 mph (NW)    
Max Wind Speed 39 mph    
Max Gust Speed 48 mph    
Visibility 5 miles    
Events Rain , Snow    
Averages and records for this station are not official NWS values.
T = Trace of Precipitation, MM = Missing Value Source: NWS Daily Summary

Daily Weather History Graph

Daily Weather History Graph

Search for Another Location

Airport or City:

Astronomy

Oct. 12, 2019 Rise Set
Actual Time 7:45 AM CDT 6:50 PM CDT
Civil Twilight 7:15 AM CDT 7:21 PM CDT
Nautical Twilight 6:39 AM CDT 7:56 PM CDT
Astronomical Twilight 6:04 AM CDT 8:31 PM CDT
Moon 6:54 PM CDT (10/12) 6:15 AM CDT (10/12)
Length of Visible Light 12h 06m
Length of Day
11h 05m
Waxing Gibbous, 99% of the Moon is Illuminated
Oct 12
Waxing Gibbous
Oct 13
Full
Oct 21
Last Quarter
Oct 27
New
Nov 4
First Quarter

Hourly Weather History & Observations

Time (CDT) Temp. Windchill Dew Point Humidity Pressure Visibility Wind Dir Wind Speed Gust Speed Precip Events Conditions
12:15 AM 30.2 °F 13.5 °F 30.2 °F 100% 29.50 in 0.8 mi WNW 39.1 mph 47.2 mph N/A Snow Light Snow
12:35 AM 30.2 °F 14.3 °F 30.2 °F 100% 29.50 in 1.2 mi WNW 34.5 mph 43.7 mph N/A Snow Light Snow
12:55 AM 30.2 °F 14.1 °F 30.2 °F 100% 29.49 in 1.2 mi WNW 35.7 mph 43.7 mph N/A Snow Light Snow
1:15 AM 30.2 °F 14.9 °F 30.2 °F 100% 29.49 in 1.0 mi WNW 31.1 mph 48.3 mph N/A Snow Light Snow
1:35 AM 30.2 °F 14.7 °F 30.2 °F 100% 29.49 in 0.8 mi WNW 32.2 mph 44.9 mph N/A Snow Light Snow
1:55 AM 30.2 °F 14.3 °F 30.2 °F 100% 29.48 in 1.0 mi WNW 34.5 mph 41.4 mph N/A Snow Light Snow
2:15 AM 30.2 °F 15.2 °F 30.2 °F 100% 29.48 in 0.8 mi WNW 29.9 mph 42.6 mph N/A Snow Light Snow
2:35 AM 30.2 °F 14.5 °F 30.2 °F 100% 29.47 in 0.8 mi WNW 33.4 mph 46.0 mph N/A Snow Light Snow
2:55 AM 30.2 °F 14.9 °F 30.2 °F 100% 29.47 in 1.2 mi WNW 31.1 mph 41.4 mph N/A Snow Light Snow
3:15 AM 30.2 °F 14.9 °F 30.2 °F 100% 29.47 in 0.8 mi WNW 31.1 mph 38.0 mph N/A Snow Light Snow
3:35 AM 30.2 °F 14.9 °F 30.2 °F 100% 29.46 in 1.0 mi WNW 31.1 mph 43.7 mph N/A Snow Light Snow
3:55 AM 30.2 °F 15.4 °F 30.2 °F 100% 29.46 in 1.0 mi WNW 28.8 mph 40.3 mph N/A Snow Light Snow
4:15 AM 30.2 °F 15.4 °F 30.2 °F 100% 29.46 in 1.5 mi WNW 28.8 mph 40.3 mph N/A Snow Light Snow
4:35 AM 30.2 °F 15.4 °F 30.2 °F 100% 29.46 in 1.2 mi WNW 28.8 mph 39.1 mph N/A Snow Light Snow
4:55 AM 30.2 °F 14.7 °F 30.2 °F 100% 29.45 in 1.2 mi WNW 32.2 mph 38.0 mph N/A Snow Light Snow
5:15 AM 30.2 °F 15.7 °F 30.2 °F 100% 29.45 in 2.0 mi WNW 27.6 mph 35.7 mph N/A Snow Light Snow
5:35 AM 30.2 °F 15.2 °F 30.2 °F 100% 29.46 in 2.0 mi WNW 29.9 mph 38.0 mph N/A Snow Light Snow
5:55 AM 30.2 °F 15.9 °F 30.2 °F 100% 29.46 in 3.0 mi NW 26.5 mph 36.8 mph N/A Snow Light Snow
6:15 AM 30.2 °F 16.2 °F 30.2 °F 100% 29.46 in 1.8 mi WNW 25.3 mph 39.1 mph N/A Snow Light Snow
6:35 AM 30.2 °F 15.9 °F 30.2 °F 100% 29.46 in 2.0 mi WNW 26.5 mph 36.8 mph N/A Snow Light Snow
6:55 AM 30.2 °F 15.9 °F 30.2 °F 100% 29.46 in 2.0 mi WNW 26.5 mph - N/A Snow Light Snow
7:15 AM 30.2 °F 15.4 °F 30.2 °F 100% 29.46 in 1.8 mi WNW 28.8 mph - N/A Snow Light Snow
7:35 AM 30.2 °F 15.4 °F 30.2 °F 100% 29.46 in 1.0 mi NW 28.8 mph 35.7 mph N/A Snow Light Snow
7:55 AM 30.2 °F 15.9 °F 30.2 °F 100% 29.45 in 0.5 mi WNW 26.5 mph 34.5 mph N/A Snow Light Snow
8:15 AM 30.2 °F 15.2 °F 30.2 °F 100% 29.46 in 0.5 mi WNW 29.9 mph 36.8 mph N/A Snow Light Snow
8:35 AM - - - N/A% 29.46 in 0.2 mi WNW 33.4 mph 39.1 mph N/A   Unknown
8:55 AM - - - N/A% 29.46 in 0.5 mi NW 25.3 mph 36.8 mph N/A   Unknown
9:15 AM 30.2 °F 14.9 °F 30.2 °F 100% 29.47 in 0.8 mi WNW 31.1 mph 38.0 mph N/A Snow Light Snow
9:35 AM 30.2 °F 14.9 °F 30.2 °F 100% 29.47 in 1.0 mi NW 31.1 mph - N/A Snow Light Snow
9:55 AM 30.2 °F 15.7 °F 30.2 °F 100% 29.48 in 1.0 mi NW 27.6 mph 38.0 mph N/A Snow Light Snow
10:15 AM 30.2 °F 15.7 °F 30.2 °F 100% 29.48 in 1.0 mi NW 27.6 mph 35.7 mph N/A Snow Light Snow
10:35 AM 30.2 °F 15.7 °F 30.2 °F 100% 29.49 in 1.5 mi NW 27.6 mph 34.5 mph N/A Snow Light Snow
10:55 AM 30.2 °F 15.7 °F 30.2 °F 100% 29.50 in 1.2 mi NW 27.6 mph - N/A Snow Light Snow
11:15 AM 30.2 °F 15.4 °F 30.2 °F 100% 29.50 in 1.2 mi NW 28.8 mph 36.8 mph N/A Snow Light Snow
11:35 AM 32.0 °F 18.1 °F 32.0 °F 100% 29.51 in 2.5 mi NW 27.6 mph 33.4 mph N/A Snow Light Snow
11:55 AM 32.0 °F 18.4 °F 32.0 °F 100% 29.51 in 3.0 mi NW 26.5 mph 34.5 mph N/A Snow Light Snow
12:15 PM 32.0 °F 18.1 °F 32.0 °F 100% 29.52 in 5.0 mi NW 27.6 mph 34.5 mph N/A Snow Light Snow
12:35 PM 32.0 °F 18.4 °F 32.0 °F 100% 29.52 in 9.0 mi NW 26.5 mph 39.1 mph N/A Snow Light Snow
12:55 PM 32.0 °F 19.2 °F 32.0 °F 100% 29.53 in 5.0 mi NW 23.0 mph 32.2 mph N/A Snow Light Snow
1:15 PM 32.0 °F 18.9 °F 30.2 °F 93% 29.54 in 10.0 mi NW 24.2 mph 36.8 mph N/A Snow Light Snow
1:35 PM 32.0 °F 18.9 °F 30.2 °F 93% 29.54 in 10.0 mi NW 24.2 mph 35.7 mph N/A Snow Light Snow
1:55 PM 32.0 °F 17.6 °F 30.2 °F 93% 29.54 in 6.0 mi NW 29.9 mph 39.1 mph N/A Snow Light Snow
2:15 PM 32.0 °F 18.6 °F 30.2 °F 93% 29.55 in 5.0 mi NW 25.3 mph 33.4 mph N/A Snow Light Snow
2:35 PM 32.0 °F 19.5 °F 32.0 °F 100% 29.56 in 5.0 mi NW 21.9 mph 29.9 mph N/A Snow Light Snow
2:55 PM 32.0 °F 19.8 °F 32.0 °F 100% 29.56 in 4.0 mi NW 20.7 mph 29.9 mph N/A Snow Light Snow
3:15 PM 32.0 °F 18.9 °F 32.0 °F 100% 29.57 in 2.0 mi NW 24.2 mph 31.1 mph N/A Snow Light Snow
3:35 PM 32.0 °F 18.9 °F 32.0 °F 100% 29.57 in 9.0 mi NW 24.2 mph 33.4 mph N/A Snow Light Snow
3:55 PM 32.0 °F 18.6 °F 30.2 °F 93% 29.58 in 9.0 mi NW 25.3 mph 36.8 mph N/A Snow Light Snow
4:15 PM 32.0 °F 19.2 °F 30.2 °F 93% 29.58 in 3.0 mi NW 23.0 mph 34.5 mph N/A Snow Light Snow
4:35 PM 32.0 °F 17.6 °F 30.2 °F 93% 29.59 in 7.0 mi NW 29.9 mph - N/A Snow Light Snow
4:55 PM 32.0 °F 18.6 °F 32.0 °F 100% 29.59 in 7.0 mi NW 25.3 mph 32.2 mph N/A Snow Light Snow
5:15 PM 32.0 °F 18.1 °F 30.2 °F 93% 29.59 in 10.0 mi NW 27.6 mph 34.5 mph N/A Snow Light Snow
5:35 PM 32.0 °F 18.1 °F 30.2 °F 93% 29.60 in 9.0 mi WNW 27.6 mph 35.7 mph N/A Snow Light Snow
5:55 PM 32.0 °F 18.6 °F 32.0 °F 100% 29.61 in 10.0 mi NW 25.3 mph 34.5 mph N/A Snow Light Snow
6:15 PM 32.0 °F 19.5 °F 32.0 °F 100% 29.62 in 9.0 mi NW 21.9 mph 28.8 mph N/A Snow Light Snow
6:35 PM 32.0 °F 19.5 °F 32.0 °F 100% 29.63 in 10.0 mi NW 21.9 mph 32.2 mph N/A Snow Light Snow
6:55 PM 32.0 °F 18.6 °F 30.2 °F 93% 29.64 in 10.0 mi NW 25.3 mph 33.4 mph N/A Snow Light Snow
7:15 PM 32.0 °F 20.1 °F 32.0 °F 100% 29.64 in 10.0 mi NW 19.6 mph 28.8 mph N/A Snow Light Snow
7:35 PM 32.0 °F 19.5 °F 32.0 °F 100% 29.65 in 10.0 mi NW 21.9 mph 28.8 mph N/A Snow Light Snow
7:55 PM 32.0 °F 20.1 °F 32.0 °F 100% 29.65 in 10.0 mi NW 19.6 mph 27.6 mph N/A Snow Light Snow
8:15 PM 32.0 °F 19.8 °F 32.0 °F 100% 29.66 in 10.0 mi NW 20.7 mph 28.8 mph N/A Snow Light Snow
8:35 PM 32.0 °F 20.1 °F 32.0 °F 100% 29.66 in 10.0 mi NW 19.6 mph 27.6 mph N/A Snow Light Snow
8:55 PM 32.0 °F 20.1 °F 32.0 °F 100% 29.66 in 10.0 mi NW 19.6 mph - N/A Snow Light Snow
9:15 PM 32.0 °F 19.5 °F 32.0 °F 100% 29.67 in 10.0 mi NW 21.9 mph - N/A   Overcast
9:35 PM 32.0 °F 20.1 °F 32.0 °F 100% 29.67 in 10.0 mi NW 19.6 mph 25.3 mph N/A   Overcast
9:55 PM 32.0 °F 19.8 °F 32.0 °F 100% 29.67 in 10.0 mi NW 20.7 mph 26.5 mph N/A   Overcast
10:15 PM 32.0 °F 19.8 °F 32.0 °F 100% 29.68 in 10.0 mi NW 20.7 mph 27.6 mph N/A Snow Light Snow
10:35 PM 32.0 °F 20.1 °F 32.0 °F 100% 29.68 in 9.0 mi NW 19.6 mph - N/A   Overcast
10:55 PM 32.0 °F 20.5 °F 32.0 °F 100% 29.68 in 5.0 mi NW 18.4 mph 26.5 mph N/A Snow Light Snow
11:15 PM 32.0 °F 20.5 °F 32.0 °F 100% 29.68 in 4.0 mi NW 18.4 mph - N/A Snow Light Snow
11:35 PM 32.0 °F 20.8 °F 32.0 °F 100% 29.68 in 10.0 mi NW 17.3 mph - N/A   Overcast
11:55 PM 32.0 °F 20.5 °F 32.0 °F 100% 29.67 in 2.0 mi NW 18.4 mph - N/A Rain Light Rain